FLX142A CYYZ-KIAH

Flight info

Callsign FLX142A
Flight time 3h 13m
Altitude 36000
Route BETES3 ERI APE FLM BWG SQS AEX DOOBI3
Aircraft B77W/H-SDE1E2E3FGHIJ2J3J4J5M1RWXY/LB1D1

Departure

Time 2026-05-06 19:09
Airport Toronto Pearson International Airport (CYYZ)

Arrival

Time 2026-05-06 22:23
Airport George Bush Intercontinental Airport (KIAH)
Time Latitude Longitude Altitude Speed Heading
2026-05-06 18:52 43.68136 -79.63601 552 ft 0 kts 154°
2026-05-06 18:59 43.68145 -79.63608 552 ft 0 kts 151°
2026-05-06 18:59 43.68156 -79.63616 552 ft 2 kts 142°
2026-05-06 18:59 43.68166 -79.63631 551 ft 2 kts 121°
2026-05-06 19:00 43.68172 -79.63650 551 ft 2 kts 102°
2026-05-06 19:00 43.68173 -79.63670 550 ft 2 kts 84°
2026-05-06 19:00 43.68170 -79.63689 550 ft 2 kts 65°
2026-05-06 19:00 43.68162 -79.63706 549 ft 1 kts 47°
2026-05-06 19:01 43.68160 -79.63710 549 ft 0 kts 45°
2026-05-06 19:04 43.68168 -79.63698 550 ft 4 kts 47°
2026-05-06 19:04 43.68200 -79.63645 551 ft 9 kts 52°
2026-05-06 19:04 43.68247 -79.63551 554 ft 14 kts 52°
2026-05-06 19:04 43.68312 -79.63427 557 ft 16 kts 77°
2026-05-06 19:05 43.68259 -79.63309 561 ft 14 kts 135°
2026-05-06 19:05 43.68182 -79.63205 564 ft 16 kts 136°
2026-05-06 19:05 43.68094 -79.63090 567 ft 19 kts 137°
2026-05-06 19:05 43.67989 -79.62953 571 ft 23 kts 136°
2026-05-06 19:06 43.67862 -79.62786 574 ft 26 kts 136°
2026-05-06 19:06 43.67724 -79.62608 576 ft 27 kts 136°
2026-05-06 19:06 43.67585 -79.62427 575 ft 28 kts 136°
2026-05-06 19:06 43.67436 -79.62231 573 ft 30 kts 136°
2026-05-06 19:07 43.67280 -79.62029 570 ft 30 kts 136°
2026-05-06 19:07 43.67125 -79.61826 566 ft 30 kts 136°
2026-05-06 19:07 43.66999 -79.61652 562 ft 20 kts 113°
2026-05-06 19:07 43.67037 -79.61546 562 ft 11 kts 42°
2026-05-06 19:08 43.67089 -79.61489 563 ft 6 kts 359°
2026-05-06 19:08 43.67117 -79.61507 564 ft 1 kts 325°
2026-05-06 19:08 43.67120 -79.61511 564 ft 2 kts 316°
2026-05-06 19:08 43.67287 -79.61725 568 ft 71 kts 316°
2026-05-06 19:09 43.67842 -79.62447 577 ft 143 kts 316°
2026-05-06 19:09 43.68668 -79.63523 886 ft 176 kts 319°
2026-05-06 19:09 43.69564 -79.64644 1892 ft 175 kts 320°
2026-05-06 19:09 43.70467 -79.65783 2340 ft 185 kts 313°
2026-05-06 19:10 43.71053 -79.67403 2772 ft 195 kts 277°
2026-05-06 19:10 43.70801 -79.69252 3253 ft 206 kts 244°
2026-05-06 19:10 43.69805 -79.70718 3754 ft 217 kts 213°
2026-05-06 19:10 43.68421 -79.71725 4059 ft 234 kts 212°
2026-05-06 19:11 43.66986 -79.72938 4377 ft 252 kts 215°
2026-05-06 19:11 43.65445 -79.74279 4886 ft 264 kts 214°
2026-05-06 19:11 43.63885 -79.75633 5684 ft 263 kts 215°
2026-05-06 19:11 43.62353 -79.76962 6394 ft 265 kts 215°
2026-05-06 19:12 43.60785 -79.78320 7138 ft 266 kts 215°
2026-05-06 19:12 43.59233 -79.79664 7891 ft 265 kts 215°
2026-05-06 19:12 43.57671 -79.81016 8658 ft 264 kts 216°
2026-05-06 19:12 43.56124 -79.82352 9384 ft 264 kts 216°
2026-05-06 19:13 43.54571 -79.83695 10043 ft 264 kts 216°
2026-05-06 19:13 43.52996 -79.85059 10495 ft 275 kts 216°
2026-05-06 19:13 43.51315 -79.86516 10798 ft 292 kts 216°
2026-05-06 19:13 43.49566 -79.88030 11150 ft 306 kts 216°
2026-05-06 19:14 43.47727 -79.89621 11501 ft 322 kts 216°
2026-05-06 19:14 43.45792 -79.91293 11941 ft 335 kts 216°
2026-05-06 19:14 43.43787 -79.93022 12622 ft 342 kts 216°
2026-05-06 19:14 43.41784 -79.94746 13466 ft 345 kts 216°
2026-05-06 19:15 43.39743 -79.96500 14376 ft 348 kts 216°
2026-05-06 19:15 43.37718 -79.98240 15333 ft 350 kts 216°
2026-05-06 19:15 43.35650 -80.00015 16310 ft 352 kts 216°
2026-05-06 19:15 43.33567 -80.01802 17193 ft 356 kts 216°
2026-05-06 19:16 43.31457 -80.03610 18064 ft 360 kts 216°
2026-05-06 19:16 43.29338 -80.05424 18919 ft 363 kts 216°
2026-05-06 19:16 43.27205 -80.07250 19755 ft 367 kts 216°
2026-05-06 19:16 43.25021 -80.09116 20570 ft 371 kts 216°
2026-05-06 19:17 43.22850 -80.10971 21356 ft 375 kts 217°
2026-05-06 19:17 43.20623 -80.12871 22142 ft 378 kts 217°
2026-05-06 19:17 43.18391 -80.14774 22958 ft 380 kts 217°
2026-05-06 19:17 43.16144 -80.16687 23744 ft 383 kts 217°
2026-05-06 19:18 43.13871 -80.18622 24402 ft 388 kts 217°
2026-05-06 19:18 43.11564 -80.20583 25103 ft 391 kts 218°
2026-05-06 19:18 43.09241 -80.22556 25848 ft 394 kts 218°
2026-05-06 19:18 43.06926 -80.24522 26484 ft 398 kts 218°
2026-05-06 19:19 43.04575 -80.26515 27105 ft 402 kts 218°
2026-05-06 19:19 43.02197 -80.28530 27722 ft 406 kts 218°
2026-05-06 19:19 42.99777 -80.30579 28353 ft 409 kts 218°
2026-05-06 19:19 42.97357 -80.32625 28986 ft 412 kts 218°
2026-05-06 19:20 42.94902 -80.34699 29621 ft 415 kts 218°
2026-05-06 19:20 42.92458 -80.36762 29862 ft 416 kts 219°
2026-05-06 19:20 42.89983 -80.38850 29845 ft 426 kts 218°
2026-05-06 19:20 42.87418 -80.41014 30102 ft 435 kts 218°
2026-05-06 19:21 42.84809 -80.43209 30688 ft 436 kts 219°
2026-05-06 19:21 42.82238 -80.45365 31461 ft 429 kts 219°
2026-05-06 19:21 42.79750 -80.47446 32361 ft 419 kts 220°
2026-05-06 19:21 42.77280 -80.49513 33032 ft 415 kts 220°
2026-05-06 19:22 42.74844 -80.51553 33511 ft 414 kts 221°
2026-05-06 19:22 42.72389 -80.53607 33966 ft 414 kts 221°
2026-05-06 19:22 42.69953 -80.55643 34416 ft 413 kts 221°
2026-05-06 19:22 42.67490 -80.57700 34856 ft 412 kts 221°
2026-05-06 19:23 42.65078 -80.59713 35255 ft 412 kts 221°
2026-05-06 19:23 42.62621 -80.61760 35689 ft 411 kts 221°
2026-05-06 19:23 42.60181 -80.63793 35884 ft 413 kts 221°
2026-05-06 19:24 42.55329 -80.67827 35919 ft 410 kts 220°
2026-05-06 19:24 42.50370 -80.71954 35897 ft 425 kts 220°
2026-05-06 19:25 42.45272 -80.76185 35920 ft 431 kts 220°
2026-05-06 19:25 42.40177 -80.80397 35908 ft 429 kts 220°
2026-05-06 19:26 42.35074 -80.84608 35947 ft 428 kts 220°
2026-05-06 19:26 42.29997 -80.88789 35924 ft 426 kts 221°
2026-05-06 19:27 42.24947 -80.92937 35908 ft 422 kts 220°
2026-05-06 19:27 42.20004 -80.96991 35894 ft 420 kts 221°
2026-05-06 19:28 42.14970 -81.01120 35899 ft 424 kts 221°
2026-05-06 19:28 42.09956 -81.05218 35903 ft 424 kts 221°
2026-05-06 19:29 42.04916 -81.09329 35904 ft 421 kts 221°
2026-05-06 19:29 41.99927 -81.13392 35900 ft 420 kts 221°
2026-05-06 19:30 41.94899 -81.17480 35904 ft 421 kts 221°
2026-05-06 19:30 41.89928 -81.21513 35899 ft 420 kts 221°
2026-05-06 19:31 41.84918 -81.25572 35914 ft 422 kts 221°
2026-05-06 19:31 41.77397 -81.31649 35926 ft 420 kts 222°
2026-05-06 19:32 41.72381 -81.35695 35930 ft 422 kts 222°
2026-05-06 19:32 41.67354 -81.39740 35931 ft 422 kts 222°
2026-05-06 19:33 41.62384 -81.43730 35929 ft 419 kts 222°
2026-05-06 19:33 41.57369 -81.47751 35925 ft 420 kts 222°
2026-05-06 19:34 41.52339 -81.51778 35922 ft 421 kts 223°
2026-05-06 19:34 41.47353 -81.55760 35923 ft 420 kts 222°
2026-05-06 19:35 41.44852 -81.57756 36033 ft 422 kts 223°
2026-05-06 19:35 41.42337 -81.59758 35705 ft 416 kts 223°
2026-05-06 19:35 41.39872 -81.61720 36093 ft 419 kts 223°
2026-05-06 19:35 41.37365 -81.63716 35927 ft 417 kts 223°
2026-05-06 19:36 41.32397 -81.67662 35953 ft 417 kts 222°
2026-05-06 19:36 41.27412 -81.71617 35946 ft 418 kts 222°
2026-05-06 19:37 41.22409 -81.75577 35945 ft 419 kts 223°
2026-05-06 19:37 41.17402 -81.79533 35939 ft 418 kts 223°
2026-05-06 19:38 41.12436 -81.83450 35931 ft 416 kts 222°
2026-05-06 19:38 41.07444 -81.87381 35928 ft 418 kts 223°
2026-05-06 19:39 41.02450 -81.91305 35930 ft 417 kts 223°
2026-05-06 19:39 40.97488 -81.95197 35927 ft 415 kts 223°
2026-05-06 19:40 40.92504 -81.99102 35936 ft 417 kts 223°
2026-05-06 19:40 40.87549 -82.02975 35937 ft 417 kts 223°
2026-05-06 19:41 40.82536 -82.06888 35934 ft 417 kts 223°
2026-05-06 19:41 40.77566 -82.10759 35925 ft 417 kts 223°
2026-05-06 19:42 40.72562 -82.14651 35927 ft 416 kts 223°
2026-05-06 19:42 40.67607 -82.18494 35923 ft 414 kts 223°
2026-05-06 19:43 40.62655 -82.22331 35924 ft 414 kts 223°
2026-05-06 19:43 40.57673 -82.26186 35922 ft 416 kts 223°
2026-05-06 19:44 40.52699 -82.30026 35919 ft 414 kts 223°
2026-05-06 19:44 40.47761 -82.33830 35917 ft 413 kts 223°
2026-05-06 19:45 40.42791 -82.37656 35917 ft 415 kts 224°
2026-05-06 19:45 40.37859 -82.41444 35915 ft 414 kts 223°
2026-05-06 19:46 40.32883 -82.45258 35912 ft 412 kts 223°
2026-05-06 19:46 40.27942 -82.49040 35917 ft 412 kts 223°
2026-05-06 19:47 40.23004 -82.52813 35912 ft 414 kts 223°
2026-05-06 19:47 40.18024 -82.56609 35916 ft 413 kts 223°
2026-05-06 19:48 40.13382 -82.60740 35913 ft 395 kts 233°
2026-05-06 19:48 40.09335 -82.65559 35929 ft 393 kts 232°
2026-05-06 19:49 40.05294 -82.70367 35950 ft 394 kts 233°
2026-05-06 19:49 40.01237 -82.75161 35950 ft 394 kts 233°
2026-05-06 19:50 39.97168 -82.79952 35949 ft 396 kts 233°
2026-05-06 19:50 39.93081 -82.84747 35948 ft 396 kts 232°
2026-05-06 19:51 39.88990 -82.89537 35951 ft 395 kts 232°
2026-05-06 19:51 39.84907 -82.94310 35953 ft 395 kts 232°
2026-05-06 19:52 39.80829 -82.99068 35955 ft 396 kts 233°
2026-05-06 19:52 39.76732 -83.03839 35955 ft 395 kts 233°
2026-05-06 19:53 39.72637 -83.08600 35957 ft 396 kts 232°
2026-05-06 19:53 39.68540 -83.13356 35951 ft 395 kts 233°
2026-05-06 19:54 39.64460 -83.18085 35948 ft 396 kts 232°
2026-05-06 19:54 39.60361 -83.22826 35938 ft 395 kts 233°
2026-05-06 19:55 39.56250 -83.27577 35941 ft 398 kts 233°
2026-05-06 19:55 39.52139 -83.32313 35936 ft 393 kts 232°
2026-05-06 19:56 39.48052 -83.37021 35934 ft 396 kts 233°
2026-05-06 19:56 39.43919 -83.41770 35930 ft 396 kts 233°
2026-05-06 19:57 39.39807 -83.46487 35929 ft 395 kts 232°
2026-05-06 19:57 39.35710 -83.51180 35931 ft 395 kts 232°
2026-05-06 19:58 39.31632 -83.55845 35928 ft 394 kts 232°
2026-05-06 19:58 39.27527 -83.60533 35924 ft 395 kts 233°
2026-05-06 19:59 39.23432 -83.65199 35924 ft 394 kts 231°
2026-05-06 19:59 39.19306 -83.69896 35950 ft 394 kts 233°
2026-05-06 20:00 39.15195 -83.74567 35946 ft 394 kts 233°
2026-05-06 20:00 39.11092 -83.79220 35944 ft 391 kts 232°
2026-05-06 20:01 39.07011 -83.83846 35946 ft 395 kts 232°
2026-05-06 20:01 39.02916 -83.88475 35944 ft 393 kts 231°
2026-05-06 20:02 38.98799 -83.93123 35944 ft 394 kts 231°
2026-05-06 20:02 38.94679 -83.97768 35948 ft 396 kts 231°
2026-05-06 20:03 38.90575 -84.02384 35941 ft 393 kts 232°
2026-05-06 20:03 38.86423 -84.07050 35943 ft 394 kts 232°
2026-05-06 20:04 38.82310 -84.11663 35946 ft 392 kts 231°
2026-05-06 20:04 38.78227 -84.16234 35943 ft 391 kts 232°
2026-05-06 20:05 38.74110 -84.20842 35946 ft 394 kts 231°
2026-05-06 20:05 38.69984 -84.25446 35947 ft 395 kts 232°
2026-05-06 20:06 38.65867 -84.30033 35955 ft 391 kts 231°
2026-05-06 20:06 38.61957 -84.34789 35950 ft 389 kts 236°
2026-05-06 20:07 38.58199 -84.39732 35946 ft 389 kts 236°
2026-05-06 20:07 38.54427 -84.44646 35945 ft 388 kts 236°
2026-05-06 20:08 38.50623 -84.49577 35946 ft 390 kts 235°
2026-05-06 20:08 38.46855 -84.54436 35943 ft 386 kts 235°
2026-05-06 20:09 38.43056 -84.59332 35948 ft 389 kts 235°
2026-05-06 20:09 38.39250 -84.64223 35944 ft 389 kts 236°
2026-05-06 20:10 38.35417 -84.69143 35977 ft 391 kts 235°
2026-05-06 20:10 38.31619 -84.74006 35979 ft 391 kts 234°
2026-05-06 20:11 38.27788 -84.78902 35979 ft 389 kts 235°
2026-05-06 20:11 38.23998 -84.83741 35979 ft 388 kts 235°
2026-05-06 20:12 38.20183 -84.88606 35978 ft 390 kts 234°
2026-05-06 20:12 38.16350 -84.93484 35978 ft 391 kts 234°
2026-05-06 20:13 38.12523 -84.98346 35974 ft 389 kts 234°
2026-05-06 20:13 38.08703 -85.03194 35968 ft 392 kts 234°
2026-05-06 20:14 38.04876 -85.08038 35953 ft 388 kts 234°
2026-05-06 20:14 38.01044 -85.12887 35946 ft 390 kts 234°
2026-05-06 20:15 37.97182 -85.17763 35944 ft 391 kts 234°
2026-05-06 20:15 37.93361 -85.22578 35942 ft 389 kts 234°
2026-05-06 20:16 37.89513 -85.27424 35948 ft 391 kts 234°
2026-05-06 20:16 37.85666 -85.32257 35956 ft 389 kts 234°
2026-05-06 20:17 37.81803 -85.37107 35956 ft 391 kts 234°
2026-05-06 20:17 37.77956 -85.41924 35956 ft 388 kts 235°
2026-05-06 20:18 37.74111 -85.46735 35958 ft 391 kts 234°
2026-05-06 20:18 37.70259 -85.51547 35951 ft 390 kts 234°
2026-05-06 20:19 37.66407 -85.56351 35955 ft 392 kts 234°
2026-05-06 20:19 37.62541 -85.61163 35949 ft 389 kts 234°
2026-05-06 20:20 37.58701 -85.65936 35968 ft 390 kts 233°
2026-05-06 20:20 37.54829 -85.70744 35981 ft 391 kts 234°
2026-05-06 20:21 37.50930 -85.75577 35979 ft 391 kts 234°
2026-05-06 20:21 37.47063 -85.80363 35978 ft 394 kts 234°
2026-05-06 20:22 37.43179 -85.85159 35977 ft 392 kts 234°
2026-05-06 20:22 37.39297 -85.89949 35978 ft 392 kts 234°
2026-05-06 20:23 37.35415 -85.94730 35975 ft 390 kts 234°
2026-05-06 20:23 37.31528 -85.99513 35976 ft 391 kts 234°
2026-05-06 20:24 37.27645 -86.04280 35972 ft 391 kts 234°
2026-05-06 20:24 37.23784 -86.09013 35964 ft 390 kts 234°
2026-05-06 20:25 37.19890 -86.13783 35957 ft 393 kts 234°
2026-05-06 20:25 37.15976 -86.18568 35960 ft 392 kts 233°
2026-05-06 20:26 37.12075 -86.23328 35953 ft 392 kts 233°
2026-05-06 20:26 37.08182 -86.28073 35955 ft 392 kts 234°
2026-05-06 20:27 37.04271 -86.32832 35955 ft 390 kts 233°
2026-05-06 20:27 37.00387 -86.37552 35966 ft 392 kts 233°
2026-05-06 20:28 36.96462 -86.42315 35965 ft 391 kts 233°
2026-05-06 20:28 36.92495 -86.46979 35964 ft 394 kts 232°
2026-05-06 20:29 36.88501 -86.51634 35961 ft 393 kts 233°
2026-05-06 20:29 36.84487 -86.56312 35956 ft 395 kts 233°
2026-05-06 20:30 36.78487 -86.63296 35947 ft 395 kts 232°
2026-05-06 20:31 36.74448 -86.67991 35978 ft 397 kts 232°
2026-05-06 20:31 36.70436 -86.72646 35974 ft 394 kts 232°
2026-05-06 20:32 36.66418 -86.77303 35977 ft 397 kts 232°
2026-05-06 20:32 36.62397 -86.81956 35977 ft 397 kts 232°
2026-05-06 20:33 36.58361 -86.86618 35978 ft 397 kts 232°
2026-05-06 20:33 36.54304 -86.91299 35978 ft 396 kts 231°
2026-05-06 20:34 36.50301 -86.95910 35980 ft 397 kts 232°
2026-05-06 20:34 36.46247 -87.00572 35985 ft 396 kts 232°
2026-05-06 20:35 36.42207 -87.05212 35985 ft 396 kts 232°
2026-05-06 20:35 36.38177 -87.09834 35983 ft 396 kts 232°
2026-05-06 20:36 36.34121 -87.14479 35984 ft 396 kts 232°
2026-05-06 20:36 36.30080 -87.19099 35980 ft 395 kts 231°
2026-05-06 20:37 36.26053 -87.23698 35978 ft 397 kts 232°
2026-05-06 20:37 36.21995 -87.28323 35979 ft 395 kts 231°
2026-05-06 20:38 36.17952 -87.32928 35979 ft 398 kts 232°
2026-05-06 20:38 36.13898 -87.37535 35974 ft 397 kts 232°
2026-05-06 20:39 36.09823 -87.42160 35975 ft 397 kts 231°
2026-05-06 20:39 36.05763 -87.46762 35971 ft 397 kts 231°
2026-05-06 20:40 36.01702 -87.51358 35962 ft 398 kts 232°
2026-05-06 20:40 35.97636 -87.55952 35959 ft 397 kts 232°
2026-05-06 20:41 35.93554 -87.60558 35960 ft 397 kts 231°
2026-05-06 20:41 35.89482 -87.65148 35957 ft 399 kts 231°
2026-05-06 20:42 35.85347 -87.69800 35993 ft 400 kts 231°
2026-05-06 20:42 35.81244 -87.74410 35992 ft 399 kts 231°
2026-05-06 20:43 35.77156 -87.78995 35988 ft 400 kts 231°
2026-05-06 20:43 35.73040 -87.83607 35982 ft 401 kts 231°
2026-05-06 20:44 35.68927 -87.88207 35981 ft 401 kts 231°
2026-05-06 20:44 35.64796 -87.92818 35982 ft 399 kts 231°
2026-05-06 20:45 35.60692 -87.97398 35984 ft 400 kts 231°
2026-05-06 20:45 35.56572 -88.01986 35988 ft 401 kts 231°
2026-05-06 20:46 35.52448 -88.06573 35985 ft 402 kts 231°
2026-05-06 20:46 35.48295 -88.11184 35982 ft 402 kts 231°
2026-05-06 20:47 35.44163 -88.15765 35981 ft 401 kts 230°
2026-05-06 20:47 35.40020 -88.20352 35968 ft 401 kts 231°
2026-05-06 20:48 35.35900 -88.24908 35969 ft 401 kts 230°
2026-05-06 20:48 35.31770 -88.29467 35980 ft 401 kts 231°
2026-05-06 20:49 35.27621 -88.34043 35971 ft 402 kts 231°
2026-05-06 20:49 35.23447 -88.38638 35971 ft 403 kts 231°
2026-05-06 20:50 35.19280 -88.43218 35960 ft 402 kts 230°
2026-05-06 20:50 35.15131 -88.47774 35974 ft 404 kts 230°
2026-05-06 20:51 35.10955 -88.52351 35974 ft 405 kts 230°
2026-05-06 20:51 35.06795 -88.56903 35966 ft 404 kts 230°
2026-05-06 20:52 35.02607 -88.61481 35969 ft 403 kts 231°
2026-05-06 20:52 34.98450 -88.66018 35984 ft 404 kts 230°
2026-05-06 20:53 34.94229 -88.70618 35986 ft 403 kts 230°
2026-05-06 20:53 34.90041 -88.75178 35981 ft 407 kts 230°
2026-05-06 20:54 34.85825 -88.79759 35987 ft 405 kts 230°
2026-05-06 20:54 34.81621 -88.84320 35976 ft 406 kts 230°
2026-05-06 20:55 34.77380 -88.88918 35970 ft 408 kts 230°
2026-05-06 20:55 34.73136 -88.93510 35971 ft 409 kts 230°
2026-05-06 20:56 34.68930 -88.98051 35977 ft 405 kts 230°
2026-05-06 20:56 34.64697 -89.02622 35975 ft 410 kts 230°
2026-05-06 20:57 34.60441 -89.07208 35966 ft 411 kts 230°
2026-05-06 20:57 34.56182 -89.11790 35954 ft 411 kts 230°
2026-05-06 20:58 34.51883 -89.16409 35976 ft 412 kts 230°
2026-05-06 20:58 34.47602 -89.21001 35963 ft 411 kts 229°
2026-05-06 20:59 34.43328 -89.25580 35959 ft 411 kts 230°
2026-05-06 20:59 34.39061 -89.30145 35963 ft 411 kts 230°
2026-05-06 21:00 34.34762 -89.34739 35960 ft 413 kts 229°
2026-05-06 21:00 34.30467 -89.39321 35961 ft 414 kts 230°
2026-05-06 21:01 34.26160 -89.43909 35957 ft 414 kts 229°
2026-05-06 21:01 34.21850 -89.48494 35957 ft 416 kts 229°
2026-05-06 21:02 34.17516 -89.53097 35950 ft 414 kts 229°
2026-05-06 21:02 34.13182 -89.57694 35945 ft 415 kts 230°
2026-05-06 21:03 34.08850 -89.62283 35954 ft 414 kts 229°
2026-05-06 21:03 34.04519 -89.66864 35988 ft 417 kts 229°
2026-05-06 21:04 34.00147 -89.71481 35982 ft 417 kts 229°
2026-05-06 21:04 33.95814 -89.76052 35979 ft 416 kts 229°
2026-05-06 21:05 33.91447 -89.80650 35981 ft 415 kts 229°
2026-05-06 21:05 33.87103 -89.85220 35973 ft 416 kts 229°
2026-05-06 21:06 33.82762 -89.89779 35976 ft 415 kts 229°
2026-05-06 21:06 33.78406 -89.94347 35970 ft 415 kts 228°
2026-05-06 21:07 33.74050 -89.98911 35953 ft 418 kts 229°
2026-05-06 21:07 33.69668 -90.03493 35953 ft 416 kts 228°
2026-05-06 21:08 33.65285 -90.08073 35953 ft 421 kts 229°
2026-05-06 21:08 33.60880 -90.12665 35954 ft 418 kts 228°
2026-05-06 21:09 33.56500 -90.17226 35954 ft 418 kts 227°
2026-05-06 21:09 33.52082 -90.21822 35946 ft 422 kts 228°
2026-05-06 21:10 33.47675 -90.26399 35939 ft 421 kts 228°
2026-05-06 21:10 33.43221 -90.31031 35938 ft 424 kts 227°
2026-05-06 21:11 33.38824 -90.35603 35936 ft 419 kts 227°
2026-05-06 21:11 33.34403 -90.40198 35925 ft 422 kts 227°
2026-05-06 21:12 33.29958 -90.44809 35919 ft 424 kts 227°
2026-05-06 21:12 33.25538 -90.49387 35925 ft 421 kts 227°
2026-05-06 21:13 33.21098 -90.53981 35916 ft 425 kts 228°
2026-05-06 21:13 33.16622 -90.58604 35911 ft 424 kts 228°
2026-05-06 21:14 33.12189 -90.63178 35908 ft 425 kts 227°
2026-05-06 21:14 33.07703 -90.67796 35931 ft 424 kts 227°
2026-05-06 21:15 33.03229 -90.72400 35924 ft 426 kts 227°
2026-05-06 21:15 32.98768 -90.76982 35920 ft 424 kts 226°
2026-05-06 21:16 32.94266 -90.81601 35924 ft 428 kts 226°
2026-05-06 21:16 32.89785 -90.86189 35917 ft 425 kts 227°
2026-05-06 21:17 32.85295 -90.90784 35928 ft 427 kts 227°
2026-05-06 21:17 32.80779 -90.95399 35931 ft 430 kts 226°
2026-05-06 21:18 32.76277 -90.99989 35928 ft 427 kts 227°
2026-05-06 21:18 32.71776 -91.04574 35927 ft 427 kts 227°
2026-05-06 21:19 32.67275 -91.09152 35921 ft 426 kts 227°
2026-05-06 21:19 32.62764 -91.13735 35921 ft 427 kts 227°
2026-05-06 21:20 32.58259 -91.18305 35914 ft 427 kts 227°
2026-05-06 21:20 32.53744 -91.22880 35915 ft 428 kts 227°
2026-05-06 21:21 32.49188 -91.27490 35910 ft 431 kts 227°
2026-05-06 21:21 32.44655 -91.32068 35897 ft 427 kts 227°
2026-05-06 21:22 32.40122 -91.36643 35891 ft 430 kts 227°
2026-05-06 21:22 32.35597 -91.41202 35894 ft 431 kts 227°
2026-05-06 21:23 32.31052 -91.45774 35896 ft 429 kts 227°
2026-05-06 21:23 32.26520 -91.50327 35894 ft 428 kts 227°
2026-05-06 21:24 32.21963 -91.54902 35892 ft 431 kts 227°
2026-05-06 21:24 32.17404 -91.59469 35885 ft 429 kts 227°
2026-05-06 21:25 32.12840 -91.64037 35885 ft 430 kts 227°
2026-05-06 21:25 32.08282 -91.68591 35902 ft 433 kts 227°
2026-05-06 21:26 32.03682 -91.73181 35900 ft 430 kts 227°
2026-05-06 21:26 31.99125 -91.77724 35897 ft 430 kts 227°
2026-05-06 21:27 31.94530 -91.82298 35879 ft 432 kts 226°
2026-05-06 21:27 31.89979 -91.86820 35875 ft 430 kts 227°
2026-05-06 21:28 31.85355 -91.91411 35880 ft 433 kts 226°
2026-05-06 21:28 31.80754 -91.95971 35876 ft 432 kts 226°
2026-05-06 21:29 31.76137 -92.00453 35856 ft 441 kts 221°
2026-05-06 21:29 31.73338 -92.02057 35868 ft 457 kts 206°
2026-05-06 21:29 31.70112 -92.02719 35867 ft 477 kts 193°
2026-05-06 21:30 31.63409 -92.02776 35869 ft 485 kts 189°
2026-05-06 21:30 31.56637 -92.02696 35867 ft 486 kts 189°
2026-05-06 21:31 31.49894 -92.02615 35866 ft 485 kts 189°
2026-05-06 21:31 31.43336 -92.03521 35874 ft 462 kts 207°
2026-05-06 21:32 31.37359 -92.06072 35868 ft 460 kts 210°
2026-05-06 21:32 31.28410 -92.10090 35869 ft 458 kts 210°
2026-05-06 21:33 31.22448 -92.12793 35869 ft 459 kts 210°
2026-05-06 21:33 31.16495 -92.15487 35869 ft 460 kts 210°
2026-05-06 21:34 31.10615 -92.18365 35868 ft 453 kts 216°
2026-05-06 21:34 31.05541 -92.22533 35864 ft 442 kts 229°
2026-05-06 21:35 31.01609 -92.27874 35864 ft 430 kts 240°
2026-05-06 21:35 30.98948 -92.34013 35858 ft 427 kts 252°
2026-05-06 21:36 30.97120 -92.40540 35855 ft 425 kts 253°
2026-05-06 21:36 30.95312 -92.47084 35854 ft 425 kts 253°
2026-05-06 21:37 30.93496 -92.53643 35852 ft 427 kts 253°
2026-05-06 21:37 30.91684 -92.60171 35837 ft 424 kts 254°
2026-05-06 21:38 30.89852 -92.66757 35856 ft 426 kts 253°
2026-05-06 21:38 30.88021 -92.73322 35861 ft 425 kts 253°
2026-05-06 21:39 30.86205 -92.79826 35861 ft 425 kts 253°
2026-05-06 21:39 30.84379 -92.86346 35857 ft 423 kts 253°
2026-05-06 21:40 30.82553 -92.92854 35855 ft 425 kts 253°
2026-05-06 21:40 30.80716 -92.99389 35852 ft 426 kts 253°
2026-05-06 21:41 30.78886 -93.05881 35856 ft 425 kts 253°
2026-05-06 21:41 30.77043 -93.12404 35853 ft 425 kts 253°
2026-05-06 21:42 30.75194 -93.18938 35860 ft 425 kts 253°
2026-05-06 21:42 30.73335 -93.25493 35858 ft 426 kts 253°
2026-05-06 21:43 30.71518 -93.31884 35064 ft 414 kts 253°
2026-05-06 21:43 30.70608 -93.35080 33676 ft 425 kts 253°
2026-05-06 21:43 30.69691 -93.38300 32093 ft 437 kts 252°
2026-05-06 21:44 30.68727 -93.41681 31106 ft 435 kts 252°
2026-05-06 21:44 30.67797 -93.44936 30645 ft 424 kts 252°
2026-05-06 21:44 30.66872 -93.48169 30259 ft 415 kts 252°
2026-05-06 21:44 30.65968 -93.51327 29750 ft 408 kts 252°
2026-05-06 21:45 30.65084 -93.54414 29118 ft 405 kts 252°
2026-05-06 21:45 30.64195 -93.57511 28404 ft 403 kts 251°
2026-05-06 21:45 30.63319 -93.60564 27701 ft 402 kts 251°
2026-05-06 21:45 30.62437 -93.63631 27074 ft 398 kts 251°
2026-05-06 21:46 30.61563 -93.66671 26479 ft 394 kts 251°
2026-05-06 21:46 30.60710 -93.69635 25953 ft 390 kts 251°
2026-05-06 21:46 30.59849 -93.72622 25380 ft 386 kts 250°
2026-05-06 21:46 30.59009 -93.75533 24738 ft 385 kts 250°
2026-05-06 21:47 30.58157 -93.78482 24087 ft 383 kts 250°
2026-05-06 21:47 30.57317 -93.81388 23494 ft 380 kts 250°
2026-05-06 21:47 30.56484 -93.84266 22874 ft 378 kts 250°
2026-05-06 21:47 30.55648 -93.87151 22261 ft 375 kts 250°
2026-05-06 21:48 30.54832 -93.89967 21750 ft 371 kts 250°
2026-05-06 21:48 30.54010 -93.92799 21263 ft 365 kts 250°
2026-05-06 21:48 30.53216 -93.95535 20793 ft 360 kts 250°
2026-05-06 21:48 30.52422 -93.98264 20320 ft 355 kts 250°
2026-05-06 21:49 30.51626 -94.01002 19839 ft 351 kts 250°
2026-05-06 21:49 30.50841 -94.03694 19360 ft 360 kts 250°
2026-05-06 21:49 30.50022 -94.06503 18875 ft 364 kts 250°
2026-05-06 21:49 30.49204 -94.09305 18356 ft 362 kts 250°
2026-05-06 21:50 30.48390 -94.12092 17847 ft 358 kts 250°
2026-05-06 21:50 30.47584 -94.14848 17354 ft 356 kts 250°
2026-05-06 21:50 30.46795 -94.17544 16912 ft 355 kts 250°
2026-05-06 21:50 30.45987 -94.20302 16457 ft 355 kts 250°
2026-05-06 21:51 30.45193 -94.23009 15984 ft 355 kts 250°
2026-05-06 21:51 30.44406 -94.25694 15704 ft 345 kts 250°
2026-05-06 21:51 30.43643 -94.28295 15625 ft 329 kts 250°
2026-05-06 21:51 30.42913 -94.30780 15512 ft 316 kts 250°
2026-05-06 21:52 30.42219 -94.33141 15383 ft 303 kts 249°
2026-05-06 21:52 30.41545 -94.35427 15255 ft 292 kts 250°
2026-05-06 21:52 30.40892 -94.37639 15125 ft 280 kts 250°
2026-05-06 21:52 30.40194 -94.39691 14997 ft 268 kts 239°
2026-05-06 21:53 30.39044 -94.41341 14856 ft 263 kts 225°
2026-05-06 21:53 30.37617 -94.42811 14592 ft 276 kts 223°
2026-05-06 21:53 30.36142 -94.44254 14292 ft 273 kts 222°
2026-05-06 21:53 30.34681 -94.45654 14007 ft 269 kts 222°
2026-05-06 21:54 30.33214 -94.47055 13440 ft 275 kts 221°
2026-05-06 21:54 30.31723 -94.48476 12933 ft 278 kts 221°
2026-05-06 21:54 30.30227 -94.49900 12568 ft 276 kts 221°
2026-05-06 21:54 30.28730 -94.51325 12213 ft 275 kts 221°
2026-05-06 21:55 30.27286 -94.52721 12079 ft 264 kts 226°
2026-05-06 21:55 30.26061 -94.54269 12032 ft 250 kts 231°
2026-05-06 21:55 30.24957 -94.55807 11738 ft 248 kts 231°
2026-05-06 21:55 30.23857 -94.57355 11383 ft 247 kts 232°
2026-05-06 21:56 30.22752 -94.58903 10986 ft 248 kts 231°
2026-05-06 21:56 30.21649 -94.60444 10703 ft 246 kts 232°
2026-05-06 21:56 30.20546 -94.61970 10442 ft 248 kts 231°
2026-05-06 21:56 30.19438 -94.63503 10195 ft 248 kts 232°
2026-05-06 21:57 30.18322 -94.65044 9953 ft 247 kts 231°
2026-05-06 21:57 30.17212 -94.66567 9726 ft 249 kts 231°
2026-05-06 21:57 30.16083 -94.68111 9493 ft 248 kts 231°
2026-05-06 21:57 30.14969 -94.69637 9257 ft 248 kts 231°
2026-05-06 21:58 30.13852 -94.71163 9019 ft 247 kts 231°
2026-05-06 21:58 30.12743 -94.72694 8783 ft 247 kts 231°
2026-05-06 21:58 30.11623 -94.74239 8532 ft 245 kts 231°
2026-05-06 21:58 30.10529 -94.75760 8292 ft 245 kts 231°
2026-05-06 21:59 30.09438 -94.77283 8053 ft 245 kts 231°
2026-05-06 21:59 30.08416 -94.78832 7809 ft 243 kts 238°
2026-05-06 21:59 30.07570 -94.80552 7578 ft 244 kts 241°
2026-05-06 21:59 30.06759 -94.82272 7341 ft 243 kts 241°
2026-05-06 22:00 30.05954 -94.83992 7107 ft 243 kts 241°
2026-05-06 22:00 30.05167 -94.85681 6854 ft 240 kts 241°
2026-05-06 22:00 30.04392 -94.87342 6585 ft 230 kts 241°
2026-05-06 22:00 30.03647 -94.88936 6381 ft 225 kts 241°
2026-05-06 22:01 30.02899 -94.90530 6135 ft 220 kts 241°
2026-05-06 22:01 30.02176 -94.92078 5907 ft 218 kts 241°
2026-05-06 22:01 30.01463 -94.93617 5670 ft 219 kts 241°
2026-05-06 22:01 30.00747 -94.95171 5430 ft 219 kts 241°
2026-05-06 22:02 30.00038 -94.96744 5186 ft 218 kts 247°
2026-05-06 22:02 29.99604 -94.98424 4942 ft 219 kts 257°
2026-05-06 22:02 29.99393 -95.00167 4695 ft 221 kts 263°
2026-05-06 22:02 29.99303 -95.01927 4455 ft 221 kts 266°
2026-05-06 22:03 29.99271 -95.03696 4245 ft 218 kts 268°
2026-05-06 22:03 29.99273 -95.05443 4047 ft 215 kts 269°
2026-05-06 22:03 29.99292 -95.07140 3857 ft 210 kts 269°
2026-05-06 22:03 29.99308 -95.08787 3719 ft 201 kts 269°
2026-05-06 22:04 29.99320 -95.10368 3589 ft 189 kts 269°
2026-05-06 22:04 29.99328 -95.11865 3374 ft 182 kts 269°
2026-05-06 22:04 29.99332 -95.13309 3173 ft 178 kts 269°
2026-05-06 22:04 29.99336 -95.14724 2956 ft 176 kts 269°
2026-05-06 22:05 29.99337 -95.16135 2746 ft 176 kts 269°
2026-05-06 22:05 29.99339 -95.17561 2527 ft 177 kts 269°
2026-05-06 22:05 29.99340 -95.18980 2309 ft 175 kts 269°
2026-05-06 22:05 29.99342 -95.20390 2089 ft 177 kts 269°
2026-05-06 22:06 29.99342 -95.21809 1863 ft 174 kts 268°
2026-05-06 22:06 29.99344 -95.23203 1641 ft 172 kts 268°
2026-05-06 22:06 29.99344 -95.24583 1423 ft 172 kts 268°
2026-05-06 22:06 29.99344 -95.25978 1200 ft 172 kts 268°
2026-05-06 22:07 29.99344 -95.27375 975 ft 173 kts 268°
2026-05-06 22:07 29.99344 -95.28747 772 ft 171 kts 268°
2026-05-06 22:07 29.99330 -95.30139 560 ft 171 kts 268°
2026-05-06 22:07 29.99342 -95.31506 306 ft 170 kts 269°
2026-05-06 22:08 29.99347 -95.32884 132 ft 167 kts 268°
2026-05-06 22:08 29.99344 -95.34167 156 ft 167 kts 268°
2026-05-06 22:08 29.99333 -95.35639 819 ft 202 kts 268°
2026-05-06 22:08 29.99294 -95.37277 1741 ft 197 kts 268°
2026-05-06 22:09 29.99244 -95.38777 2051 ft 189 kts 268°
2026-05-06 22:09 29.99226 -95.40379 1817 ft 203 kts 269°
2026-05-06 22:09 29.99219 -95.42004 1780 ft 206 kts 269°
2026-05-06 22:09 29.99217 -95.43697 1952 ft 213 kts 269°
2026-05-06 22:10 29.99300 -95.45407 1982 ft 215 kts 284°
2026-05-06 22:10 30.00120 -95.46910 1985 ft 236 kts 321°
2026-05-06 22:10 30.01637 -95.47751 1986 ft 247 kts 352°
2026-05-06 22:10 30.03390 -95.47851 2001 ft 258 kts
2026-05-06 22:11 30.05204 -95.47822 2000 ft 261 kts
2026-05-06 22:11 30.07021 -95.47726 1987 ft 260 kts 12°
2026-05-06 22:11 30.08671 -95.46867 1985 ft 263 kts 40°
2026-05-06 22:11 30.09759 -95.45208 1991 ft 261 kts 69°
2026-05-06 22:12 30.10050 -95.43143 2008 ft 260 kts 90°
2026-05-06 22:12 30.10002 -95.41044 2010 ft 265 kts 92°
2026-05-06 22:12 30.09937 -95.38896 2009 ft 267 kts 92°
2026-05-06 22:12 30.09888 -95.36723 2007 ft 269 kts 92°
2026-05-06 22:13 30.09845 -95.34573 2007 ft 270 kts 92°
2026-05-06 22:13 30.09806 -95.32424 2004 ft 266 kts 91°
2026-05-06 22:13 30.09763 -95.30279 2008 ft 265 kts 92°
2026-05-06 22:13 30.09722 -95.28153 2006 ft 261 kts 91°
2026-05-06 22:14 30.09683 -95.26062 2067 ft 266 kts 92°
2026-05-06 22:14 30.09646 -95.23926 2508 ft 265 kts 92°
2026-05-06 22:14 30.09613 -95.21788 2813 ft 270 kts 91°
2026-05-06 22:14 30.09582 -95.19591 2988 ft 274 kts 92°
2026-05-06 22:15 30.09561 -95.17390 2998 ft 273 kts 92°
2026-05-06 22:15 30.09537 -95.15214 3013 ft 272 kts 91°
2026-05-06 22:15 30.09512 -95.13006 3007 ft 271 kts 91°
2026-05-06 22:15 30.09491 -95.10855 2995 ft 271 kts 91°
2026-05-06 22:16 30.09471 -95.08658 2993 ft 272 kts 92°
2026-05-06 22:16 30.09118 -95.06569 2984 ft 260 kts 117°
2026-05-06 22:16 30.08016 -95.05020 2984 ft 240 kts 147°
2026-05-06 22:16 30.06545 -95.04409 2970 ft 219 kts 177°
2026-05-06 22:17 30.05004 -95.04386 2992 ft 220 kts 181°
2026-05-06 22:17 30.03463 -95.04398 2996 ft 220 kts 181°
2026-05-06 22:17 30.01933 -95.04409 2995 ft 219 kts 181°
2026-05-06 22:17 30.00446 -95.04678 2989 ft 219 kts 204°
2026-05-06 22:18 29.99306 -95.05817 2973 ft 219 kts 238°
2026-05-06 22:18 29.98922 -95.07486 2967 ft 219 kts 271°
2026-05-06 22:18 29.99143 -95.09225 2991 ft 221 kts 276°
2026-05-06 22:18 29.99272 -95.10999 2985 ft 219 kts 271°
2026-05-06 22:19 29.99310 -95.12760 2992 ft 219 kts 269°
2026-05-06 22:19 29.99320 -95.14500 2991 ft 217 kts 269°
2026-05-06 22:19 29.99324 -95.16215 2739 ft 211 kts 269°
2026-05-06 22:19 29.99330 -95.17896 2480 ft 204 kts 270°
2026-05-06 22:20 29.99334 -95.19507 2232 ft 198 kts 271°
2026-05-06 22:20 29.99338 -95.21028 1995 ft 182 kts 271°
2026-05-06 22:20 29.99342 -95.22446 1780 ft 169 kts 271°
2026-05-06 22:20 29.99344 -95.23788 1571 ft 166 kts 271°
2026-05-06 22:21 29.99345 -95.25102 1359 ft 163 kts 271°
2026-05-06 22:21 29.99345 -95.26434 1142 ft 163 kts 270°
2026-05-06 22:21 29.99349 -95.27721 937 ft 161 kts 270°
2026-05-06 22:21 29.99357 -95.29031 728 ft 163 kts 269°
2026-05-06 22:22 29.99348 -95.30328 517 ft 162 kts 268°
2026-05-06 22:22 29.99339 -95.31614 294 ft 160 kts 268°
2026-05-06 22:22 29.99344 -95.32879 111 ft 153 kts 269°
2026-05-06 22:22 29.99342 -95.33977 107 ft 113 kts 270°
2026-05-06 22:23 29.99341 -95.34706 107 ft 69 kts 270°
2026-05-06 22:23 29.99342 -95.35083 106 ft 25 kts 271°
2026-05-06 22:23 29.99335 -95.35242 106 ft 18 kts 250°
2026-05-06 22:23 29.99252 -95.35277 106 ft 12 kts 182°
2026-05-06 22:24 29.99222 -95.35278 106 ft 0 kts 179°
2026-05-06 22:25 29.99197 -95.35278 106 ft 3 kts 198°
2026-05-06 22:25 29.99180 -95.35332 106 ft 10 kts 264°
2026-05-06 22:26 29.99175 -95.35432 107 ft 11 kts 264°
2026-05-06 22:26 29.99127 -95.35482 107 ft 9 kts 185°
2026-05-06 22:26 29.99061 -95.35484 106 ft 10 kts 180°
2026-05-06 22:26 29.98976 -95.35484 106 ft 12 kts 180°
2026-05-06 22:27 29.98888 -95.35484 106 ft 12 kts 179°
2026-05-06 22:27 29.98807 -95.35461 106 ft 12 kts 156°
2026-05-06 22:27 29.98733 -95.35418 106 ft 7 kts 153°
2026-05-06 22:27 29.98669 -95.35380 106 ft 11 kts 152°
2026-05-06 22:28 29.98646 -95.35365 106 ft 8 kts 152°
2026-05-06 22:28 29.98558 -95.35311 106 ft 19 kts 151°
2026-05-06 22:28 29.98422 -95.35228 105 ft 22 kts 150°
2026-05-06 22:28 29.98327 -95.35132 105 ft 16 kts 102°
2026-05-06 22:29 29.98324 -95.34996 105 ft 18 kts 89°
2026-05-06 22:29 29.98324 -95.34840 106 ft 20 kts 90°
2026-05-06 22:29 29.98324 -95.34665 106 ft 22 kts 90°
2026-05-06 22:29 29.98338 -95.34485 106 ft 22 kts 64°
2026-05-06 22:30 29.98377 -95.34310 107 ft 22 kts 89°
2026-05-06 22:30 29.98375 -95.34135 107 ft 21 kts 92°
2026-05-06 22:30 29.98324 -95.33988 107 ft 18 kts 106°
2026-05-06 22:30 29.98317 -95.33844 106 ft 17 kts 90°
2026-05-06 22:31 29.98315 -95.33701 106 ft 18 kts 93°
2026-05-06 22:31 29.98303 -95.33541 106 ft 18 kts 94°
2026-05-06 22:31 29.98302 -95.33437 105 ft 14 kts 91°
2026-05-06 22:31 29.98305 -95.33321 105 ft 11 kts 65°
2026-05-06 22:32 29.98358 -95.33270 105 ft 4 kts 32°
2026-05-06 22:32 29.98374 -95.33258 105 ft 0 kts 31°